Location: Heiligenberg
(48.5381°N, 7.3897°E)
Time: 21:31:04
(UTC+00:00)

Nadezhda 1 Rocket - Pass Details

Date: 26 May 2022
Orbit: 940 x 1006 km, 83.0° (Epoch: 03 July)

Event Time Altitude Azimuth Distance (km) Brightness Sun altitude
Exits shadow 02:15:04 12° 201° (SSW) 2,615 5.7 -10.9°
Maximum altitude 02:20:59 65° 282° (WNW) 1,084 4.1 -10.3°
Drops below altitude 10° 02:27:15 10° 4° (N) 2,744 7.2 -9.6°
Sets 02:29:47 0° 8° (N) 3,686 8.0 -9.4°
